Retour au catalogue

BREEZE-M R/B

LostHEO
NORAD 40985·ROCKET BODY·🇷🇺 Russia

Lancé Oct 16, 2015 depuis Baikonur Cosmodrome

Loading…

Prochains Passages (prochaines 24 heures)

TLE

PériméSource: Space-Track

Époque: Aug 5, 2026, 15:44 UTC

1 40985U 15060B   26217.65587084 -.00000072  00000-0  00000-0 0  9999
2 40985  13.5059 299.4224 4772319  61.7370 338.0461  1.91626399 75621

Suivez BREEZE-M R/B en temps réel avec AllMySat

Download on the App Store